Regional Weather Roundup
Issued by NWS

Home | Current Version | Previous Version | Graphics & Text | Print | Product List | Glossary On
Versions: 1 2 3 4 5 6 7 8 9 10 11 12 13 14 15 16 17 18 19 20 21 22 23 24 25 26 27 28 29 30 31 32 33 34 35 36 37 38 39 40 41 42 43 44 45 46 47 48 49 50
000
ASUS43 KFSD 280602
RWRSD

WEATHER ROUNDUP FOR SOUTH DAKOTA
NATIONAL WEATHER SERVICE SIOUX FALLS SD
100 AM CDT MON JUL 28 2014

NOTE: "FAIR" INDICATES FEW OR NO CLOUDS BELOW 12,000 FEET WITH NO
SIGNIFICANT WEATHER AND/OR OBSTRUCTIONS TO VISIBILITY.


SDZ001>005-009-010-012>017-280700-
NORTHWEST AND NORTH CENTRAL SOUTH DAKOTA

CITY           SKY/WX    TMP DP  RH WIND       PRES   REMARKS
BUFFALO          N/A     57  52  83 SE6       30.28R
FAITH            N/A     58  51  78 SE8       30.33R
MOBRIDGE       CLEAR     55  52  89 NE7       30.27S
$$

SDZ012>016-024>037-041>051-057-063-072>074-280700-
SOUTHWEST AND SOUTH CENTRAL SOUTH DAKOTA

CITY           SKY/WX    TMP DP  RH WIND       PRES   REMARKS
RAPID CTY ARPT CLEAR     57  52  83 E5        30.35R
PIERRE         CLEAR     56  53  90 CALM      30.29R
CUSTER         CLEAR     56  48  74 E7        30.43S
ELLSWORTH AFB  CLEAR     62  53  71 CALM      30.34S
PHILIP         CLEAR     58  51  78 E6        30.32R
PINE RIDGE     CLEAR     58  52  80 NE8       30.32R
WINNER         FAIR      60  53  77 SE6       30.30R
$$

SDZ004>011-016>023-039-040-280700-
NORTHEAST SOUTH DAKOTA

CITY           SKY/WX    TMP DP  RH WIND       PRES   REMARKS
ABERDEEN       CLEAR     54  52  93 NW8       30.26R
WATERTOWN      CLEAR     54  52  93 N6        30.23S
SISSETON         N/A     56  55  97 N7        30.22R
$$

SDZ017-020-022-023-036>040-048>070-280700-
SOUTHEAST SOUTH DAKOTA

CITY           SKY/WX    TMP DP  RH WIND       PRES   REMARKS
SIOUX FALLS    CLEAR     59  56  89 NW7       30.23R
HURON          CLEAR     53  51  93 NW6       30.25S
CHAMBERLAIN    CLEAR     55  52  88 CALM      30.29R
MITCHELL       CLEAR     57  54  89 NW5       30.26S
YANKTON        CLOUDY    61  55  82 NW7       30.25R
$$

ABBREVIATIONS USED IN REMARKS
   TC - TEMPERATURE IN CELSIUS
  WCI - WIND CHILL INDEX
   HX - HEAT INDEX
  VSB - VISIBILITY



USA.gov is the U.S. government's official web portal to all federal, state and local government web resources and services.